LGAVLGMK

Guest
Details From LGAV - Athens Intl Airport Elefterios Venizel
To LGMK - Mikonos
Flight Number -
Tags generated
Created
Modified
Stats Distance 73 nm / 136 km
Max Altitude 0 ft / 0 m
Waypoints 3
Social Downloads 0
Likes 0
Share VATSIM

Download

Looking for another format? Having issues loading an existing format? Contact us
Advertisement - Login to hide

Notes

Basic altitude profile: - Ascent Rate: 2500ft/min - Ascent Speed: 250kts - Cruise Altitude: 35000ft - Cruise Speed: 420kts - Descent Rate: 1500ft/min - Descent Speed: 250kts Options: - Use NATs: no - Use PACOTS: no - Use low airways: yes - Use high airways: yes

Route

LGAV MKN LGMK

ID Type Via Altitude (ft/m) Position (lat/lon) Dist (leg/tot) Name
O LGAV APT - 0 / 0 37.93636 / 23.94447 - / 0 nm Athens Intl Airport Elefterios Venizel
MKN VOR - 0 / 0 37.44027 / 25.34449 72 / 72 nm MIKONOS VOR-DME
O LGMK APT - 0 / 0 37.43539 / 25.34814 0 / 73 nm Mikonos

Altitude Profile

Advertisement - Login to hide

LGAV

Details ICAO LGAV (ATH)
Name Athens Eleftherios Venizelos
Region Greece
Timezone Europe/Athens (UTC+3.0)
Stats Elevation 308 ft / 94 m (AMSL)
Location 37.936700° 23.944500°
Runways 2
Magnetic Variation 4.632° E

METAR

LGAV 200120Z 00000KT CAVOK 19/17 Q1012 NOSIG

Decode

TAF

TAF TAF LGAV 192300Z 2000/2024 VRB05KT 9999 FEW025 BECMG 2006/2008 04010KT PROB30 TEMPO 2010/2014 5000 TSRA FEW016CB BKN020 BECMG 2012/2014 16010KT BECMG 2016/2018 VRB03KT

Decode

Departure Runways

ID Width Length Bearing (true/mag) Surface Threshold Overrun Markings Lighting
03L 151 ft / 46 m 12,478 ft / 3,803 m 36.86° / 32.23° ASPHALT 984 ft / 300 m 394 ft / 120 m PREC-APP CENTERLINE EDGE THRESHOLD ALSF-II TDZ REIL-OMNI
03R 151 ft / 46 m 13,135 ft / 4,004 m 36.87° / 32.24° ASPHALT 984 ft / 300 m 394 ft / 120 m PREC-APP CENTERLINE EDGE THRESHOLD ALSF-II TDZ REIL-OMNI
21L 151 ft / 46 m 13,135 ft / 4,004 m 216.89° / 212.26° ASPHALT 984 ft / 300 m 394 ft / 120 m PREC-APP CENTERLINE EDGE THRESHOLD ALSF-II TDZ REIL-OMNI
21R 151 ft / 46 m 12,478 ft / 3,803 m 216.87° / 212.24° ASPHALT 984 ft / 300 m 394 ft / 120 m PREC-APP CENTERLINE EDGE THRESHOLD ALSF-II TDZ REIL-OMNI

LGMK

Details ICAO LGMK (JMK)
Name Mikonos
Region Greece
Timezone Europe/Athens (UTC+3.0)
Stats Elevation 404 ft / 123 m (AMSL)
Location 37.435400° 25.348100°
Runways 1
Magnetic Variation 4.747° E

METAR

LGMK 200120Z 31004KT CAVOK 22/18 Q1011

Decode

TAF

Not found

Destination Runways

ID Width Length Bearing (true/mag) Surface Threshold Overrun Markings Lighting
16 98 ft / 30 m 6,423 ft / 1,958 m 160.63° / 155.88° ASPHALT 0 ft / 0 m 200 ft / 61 m APP EDGE THRESHOLD REIL-OMNI
34 98 ft / 30 m 6,423 ft / 1,958 m 340.63° / 335.88° ASPHALT 0 ft / 0 m 200 ft / 61 m APP EDGE THRESHOLD REIL-OMNI

Popular Alternatives